OneWeb SL0614

operational
NORAD ID: 55156 Int'l Des: 2023-004 Owner: ONEWEBN Country: UK Constellation: oneweb
LEOCIRCULARPOLARONEWEB_TYPE

About OneWeb SL0614

Description loading...

Live Position

Loading 3D Globe...

Upcoming Passes

Altitude History

Altitude vs Time

uPlot chart will show altitude changes over time

Two-Line Element Set

1 55156U 23004S 25258.56308777 .00000564 00000-0 15561-2 0 9991
2 55156 87.8772 75.8008 0002020 88.9046 271.2314 13.11418424129843
Epoch: Sep 15, 2025 • Age: 10 hours

Current Status

Altitude 1247.1 km
Velocity 7.23 km/s
Sub-Earth Point -77.85°S, 89.33°W
Launch Date Jan 10, 2023
Age 2.6 years
Type internet

Technical Details

Classification Payload
Mass 148.00 kg
Dry Mass 140.00 kg
Total Mass 148.00 kg
Length 1.30 m
Diameter 1.00 m
Span 5.00 m
Shape Trapezoid+2 pan
Manufacturer ONEWUS
Bus Type ARROW
Phase Status In Orbit
Owner/State ONEWEBN/UK

Large Constellations

Loading constellations...